Weather in Sadovoye

Russia / Amur Oblast     50°09′28″N   127°52′22″E
temp.,
°C
wind,
m/s
gust,
m/s
humid.,
%
clouds,
%
prec.,
mm/h
press.,
hPa
HPBL,
m
19 april, mon
mon1900:00+6s35685 0.0 100564
03:00+4s34686 0.0 100449
06:00+4w35645 0.0 100466
09:00+5nnw1013475 0.0 1007884
12:00+6nnw10123799 0.0 10091352
15:00+8nnw1113230 0.0 10102019
18:00+6nnw914255 0.0 10122127
21:00+2nw813310 0.0 1015966
20 april, tue
tue2000:000nw713380 0.0 1016929
03:00−1nw918340 0.0 10161351
06:00−2nw917330 0.0 10171257
09:00+2nw1017200 0.0 10171455
12:00+7nw812150 0.0 10171697
15:00+10nw69135 0.0 10151694
18:00+10wnw36220 0.0 1015766
21:00+6ssw22355 0.0 101611
21 april, wed
wed2100:00+4s47445 0.0 101592
03:00+3sse47530 0.0 1014105
06:00+2sse47601 0.0 1014113
09:00+10s354146 0.0 1014351
12:00+18s710250 0.0 10121171
15:00+22ssw911210 0.0 10101644
18:00+20s813262 0.0 1010728
21:00+15s5153648 0.0 1010244
22 april, thu
thu2200:00+13s512435 0.0 1010196
03:00+11sse514525 0.0 1010232
06:00+10sse6145499 0.0 1009262
09:00+17s8133638 0.1 1009768
12:00+23sw7102558 0.1 10111862
15:00+23wsw91225100 0.1 10122305
18:00+21sw71035100 0.0 10151253
21:00+13n47466 0.0 1020209
23 april, fri
fri2300:00+10n6105691 0.0 1024531
03:00+7n6105698 0.0 1026802
06:00+5n61045100 0.0 1028716
09:00+4n6840100 0.0 1030701
12:00+6n5734100 0.0 1030909
15:00+10n6620100 0.0 10281567
18:00+9n4720100 0.1 10281646
21:00+6n51028100 0.1 1028313